FENGYUN 1C DEB, 31348

Orbit data source: Space-Track

FENGYUN 1C DEB, 31348 is space debris in SSO originally from a launch on Mon, 10 May 1999 UTC launched from the Taiyaun Space Center, China (TSC). Fengyun 1C debris stems from the Chinese weather satellite Fengyun-1C, which was intentionally destroyed by a Chinese anti-satellite missile in 2007. This event dramatically increased the amount of space debris, with thousands of trackable fragments posing hazards to satellites and human spaceflight. The Fengyun 1C debris cloud has become a focal point in discussions about space sustainability and the need for international regulations to prevent the creation of new debris.

Loading next visibility...
Identifier
31348, 1999-025BRC
Orbit
SSO
Country
Flag of CNCN / PRC
Related business
Manufacturer
Unknown
Mission
Spacecraft
Bus & Motor
Unknown
Mass
Unknown
Launch date (UTC)
1999-05-10 (27 years ago)
Launch vehicle
Unknown
Launch site
Taiyaun Space Center, China (TSC)
Object type
Payload
Rocket body
Debris
Shape & HBR
Unknown shape, 0.1 m
Radar Cross Section
Medium (>0.1 m² and <1 m²)

Expand to show TLE details & history
Last TLE update: 1 day ago

TLE from 1 day ago
0 FENGYUN 1C DEB
1 31348U 99025BRC 26150.13977147  .00004135  00000-0  14520-2 0  9994
2 31348  99.1380 115.6189 0032299 298.4874 123.8257 14.35269598986642
Epoch: 2026-05-30T03:21Z
TLE epoch observation values (Epoch: 2026-05-30T03:21:16.255Z)
Latitude
61.34311°
Longitude
160.61727°
Altitude
797.527 km
Speed
7.454 km/s
True Right ascension
06h 34m 22s
True Declination
61° 11' 56"
Sunlit
Object was in daylight at epoch
Visualization orbit readout
Latitude
Unknown
Longitude
Unknown
Altitude
Unknown
Speed
Unknown
Apparent Right ascension
Unknown
Apparent Declination
Unknown
Sunlit
N/A
Visualization observer readout
Local Sidereal Time
18:33:58
Azimuth
Unknown
Elevation
Unknown
Doppler factor
Unknown
Orbital elements
Apogee altitude
794.422 km
Perigee altitude
748.238 km
Semi-major axis
7,149.467 km
Eccentricity
0.00323
Inclination
99.138°
RAAN
115.6189°
Arg. of periapsis
298.4874°
True anomaly
124.13248°
Mean anomaly
123.8257°
Eccentric anomaly
123.97916°
Mean motion
3.59032 °/min
Orbital period
100.27 mins
BSTAR
0.001452
Loading maneuver chart data...
Computing Atmospheric mass density...
Loading historical data...
Loading historical data...
Loading historical data...
Loading historical data...
Loading historical data...
Loading historical data...
Loading historical data...

Documentation

Showing up to 5 results
|